GFSSW_prec_cloud_003.txt.gz
Cloud_Cover
18 20 91 9 5 2 4 5 32 22 5 0 35 13 5 31 5 5 10 5 5 5 5 1 0 0 0 0 0 0 0 0 0 0 0 0 0 0 0 0 0 0 0 0 0
50 65 70 96 25 5 5 5 5 9 5 5 3 4 5 5 5 5 7 5 5 5 5 0 0 0 0 0 0 0 0 0 0 0 0 0 0 0 0 0 0 0 0 0 0
6 80 84 69 86 59 5 14 8 87 84 52 17 5 5 5 5 2 5 5 5 5 5 0 0 0 0 0 0 0 0 0 0 0 0 0 0 0 0 0 0 0 0 0 0
0 0 0 0 0 1 5 3 5 15 5 94 69 30 7 6 18 5 5 5 5 5 0 0 0 0 0 0 0 0 0 0 0 0 0 0 0 0 0 0 0 0 0 0 0
0 0 0 0 0 0 0 0 0 0 0 0 0 0 1 4 0 0 4 0 0 0 0 0 0 0 0 0 0 0 0 0 0 0 0 0 0 0 0 3 0 0 0 0 0
5 5 4 1 0 0 0 0 0 0 0 0 4 60 5 5 4 0 0 0 0 0 0 0 0 0 1 0 0 0 0 1 1 0 0 0 0 0 0 0 5 0 0 0 0
2 0 0 5 5 41 8 5 3 0 1 0 22 12 2 5 5 5 2 2 1 4 82 96 94 57 5 10 1 0 0 6 23 0 0 0 3 0 0 0 0 5 3 0 0
0 5 5 5 5 9 8 5 100 57 59 6 11 0 4 8 5 5 5 5 10 82 100 100 86 55 100 97 10 5 3 6 61 0 0 0 4 0 0 0 0 0 0 0 0
4 5 5 5 5 5 5 4 5 6 5 5 5 3 40 97 46 5 14 46 67 100 92 100 16 5 30 63 0 0 2 9 87 4 1 5 5 0 0 3 2 0 0 0 3
5 5 5 5 5 5 5 4 2 2 16 3 1 4 5 69 100 79 47 100 100 100 100 100 87 24 100 38 5 5 1 4 8 10 0 50 34 8 2 1 1 0 0 0 1
5 42 48 5 5 5 5 8 0 0 0 4 0 5 59 76 14 100 100 100 100 100 100 100 97 100 100 6 5 5 5 0 5 3 3 100 100 100 60 3 0 0 0 0 0
55 85 16 5 10 68 65 33 20 6 1 4 5 5 5 18 81 100 100 100 100 100 85 58 100 100 100 97 9 2 1 2 3 5 0 11 100 100 100 100 100 13 1 0 0
82 16 38 25 78 23 35 25 43 100 12 73 58 32 100 36 100 100 100 100 100 100 100 92 52 97 100 95 40 15 5 5 4 2 5 4 78 100 98 24 10 95 77 30 2
5 5 78 5 26 32 26 5 5 100 97 0 51 100 99 100 59 100 100 100 100 79 74 22 100 36 5 7 98 5 80 4 4 5 1 9 38 100 100 30 86 15 97 18 0
92 32 38 6 42 12 26 10 18 30 0 2 4 100 100 100 96 96 61 7 16 90 49 79 6 5 6 49 5 5 6 5 5 5 6 97 2 100 100 100 100 100 25 20 100
92 82 85 98 97 57 42 81 37 56 5 0 0 52 87 100 100 100 100 100 100 100 33 55 4 42 43 96 100 100 70 50 52 44 13 20 4 99 100 100 100 100 100 85 76
100 100 93 100 99 100 99 100 100 47 0 1 2 0 2 58 100 100 100 100 100 100 100 97 46 87 89 17 18 78 6 12 4 5 16 89 6 100 100 100 100 100 100 100 100
100 98 100 100 100 100 100 100 100 67 76 40 17 5 6 1 4 11 24 100 100 100 63 100 100 100 88 77 86 96 75 5 33 9 51 40 58 100 100 100 100 100 100 100 100
100 100 100 100 100 100 100 100 92 6 30 99 97 39 58 92 100 100 36 25 91 100 100 100 30 73 100 100 100 100 100 100 100 6 3 92 92 100 100 100 100 100 100 100 100
100 100 99 100 100 100 100 100 94 99 100 100 86 82 100 54 100 100 44 7 9 92 100 90 93 40 42 81 55 83 99 100 100 100 10 48 45 100 100 100 100 100 100 100 100
100 100 99 100 100 100 100 100 100 100 100 100 100 95 100 68 100 100 98 84 100 100 100 100 100 23 100 100 100 100 100 100 100 100 87 24 47 100 100 100 100 100 100 90 36
100 100 100 100 100 100 100 100 100 100 100 100 100 100 100 100 100 100 99 98 100 100 100 100 100 98 100 100 100 100 100 100 100 100 100 100 74 100 100 100 100 100 100 100 100
100 100 100 100 100 100 100 100 100 99 100 100 100 100 100 100 100 100 100 100 100 100 100 100 100 100 80 30 91 100 100 100 100 100 100 100 71 94 100 100 100 100 100 16 81
100 100 100 100 100 100 100 100 100 100 100 100 100 100 100 100 100 100 100 100 100 100 100 100 100 100 100 100 100 100 100 100 100 100 73 93 21 100 100 100 100 100 91 100 100
100 100 100 100 100 100 100 100 100 100 100 100 100 100 100 100 100 100 100 100 100 100 100 100 100 100 100 100 100 100 100 100 100 98 100 83 100 100 100 100 100 75 56 100 100
100 100 100 100 100 100 100 100 100 100 100 100 100 100 100 100 100 100 100 100 100 100 98 100 100 100 100 100 100 100 100 100 100 100 100 100 100 5 100 100 100 100 100 100 100
96 100 100 100 47 94 10 100 100 100 67 62 100 100 100 100 100 100 100 100 100 100 100 100 100 100 100 100 100 100 100 100 100 100 100 100 100 100 100 100 100 100 100 100 100

GFSSW_prec_cloud_006.txt.gz
Cloud_Cover
12 17 5 5 90 32 9 6 5 6 32 66 34 33 19 5 5 5 5 5 5 5 5 0 0 0 0 0 0 0 0 0 0 0 0 0 0 0 0 0 0 0 0 0 0
0 1 29 5 5 5 5 7 5 12 5 14 81 44 65 70 5 2 2 5 5 5 1 1 0 0 0 0 0 0 0 0 0 0 0 0 0 0 0 0 0 0 0 0 0
0 0 4 1 6 5 5 21 12 5 2 5 5 5 58 64 10 4 2 0 3 5 0 0 0 0 0 0 0 0 0 0 0 0 0 0 0 0 0 0 0 0 0 0 0
0 0 0 0 0 0 0 0 0 0 1 1 1 3 2 5 4 4 1 0 0 0 0 0 0 0 0 0 0 0 0 0 0 0 0 0 0 0 0 0 0 0 0 0 0
0 0 0 0 0 0 0 0 0 0 0 0 0 3 2 1 0 0 0 0 0 0 0 0 0 0 0 2 0 3 10 0 0 0 0 0 0 0 0 0 0 0 0 0 0
0 0 0 0 1 5 5 5 4 4 5 2 0 66 4 6 0 0 0 0 0 0 2 2 1 15 96 100 59 98 100 4 8 3 1 0 0 0 0 0 0 0 0 0 0
3 0 3 5 4 1 5 5 5 5 1 5 5 7 23 94 59 5 0 0 5 5 2 5 23 60 100 52 88 85 44 8 100 5 0 1 83 5 0 0 0 0 0 0 0
5 5 1 0 1 5 5 0 5 5 3 5 23 4 81 100 100 18 5 46 6 7 11 33 51 5 10 68 34 5 2 35 100 3 0 5 100 24 0 0 0 0 0 1 0
20 5 4 0 5 5 2 1 4 5 1 2 7 0 4 48 72 7 5 8 42 100 96 100 69 6 58 99 1 2 33 51 54 29 0 1 99 100 8 0 0 0 0 0 0
52 8 5 5 5 5 3 1 0 3 1 0 0 0 1 43 100 99 100 38 5 27 41 51 5 5 100 45 0 5 2 5 5 98 3 0 58 100 41 0 0 0 0 0 0
5 22 5 5 5 5 8 5 5 5 15 17 29 39 87 98 90 100 100 71 54 5 9 9 23 8 94 5 5 5 0 0 5 2 0 0 60 100 100 100 5 0 0 0 0
12 5 5 5 0 4 5 5 1 5 6 82 100 100 78 14 82 100 92 100 91 5 6 5 37 47 5 21 4 5 5 0 3 2 1 1 12 100 100 100 100 0 0 0 0
49 5 37 61 24 14 5 5 4 5 4 43 96 42 38 63 100 100 100 100 100 88 100 49 31 98 25 20 16 4 3 5 4 3 5 5 72 70 100 100 100 85 0 0 0
100 72 43 5 5 38 11 5 5 21 24 48 44 92 26 70 100 100 100 100 100 97 91 100 100 55 43 54 96 100 99 39 6 5 21 11 28 100 100 100 100 96 96 40 0
97 100 100 42 5 48 16 6 5 5 4 32 27 18 90 51 12 10 70 67 5 86 100 99 29 6 5 18 5 9 98 99 100 43 70 24 26 100 100 100 100 100 100 100 62
100 100 83 33 93 100 69 11 41 28 92 1 25 84 60 100 100 77 42 50 59 10 1 8 24 98 89 10 5 5 78 39 100 89 100 100 100 94 100 100 100 100 100 98 100
100 100 100 93 100 100 100 28 19 83 6 3 2 5 64 75 39 37 100 100 77 27 21 51 67 51 15 23 6 5 5 11 11 7 100 96 92 100 100 76 100 100 100 100 100
98 100 100 100 100 100 100 97 100 12 10 5 5 5 5 90 100 100 44 30 99 78 87 95 98 66 96 68 100 99 52 14 72 0 14 70 96 100 100 100 100 100 100 100 100
100 100 100 99 100 100 100 100 81 5 22 66 83 7 5 6 97 100 61 5 5 5 90 23 43 38 94 100 100 100 100 100 100 38 1 2 69 100 100 100 100 100 53 100 100
100 100 100 100 100 100 100 100 100 100 100 100 89 93 6 11 67 87 71 5 5 5 96 98 72 4 2 23 100 100 100 100 100 100 100 38 1 100 100 100 100 100 100 100 100
100 100 100 100 100 100 100 74 100 100 100 100 100 100 96 59 99 100 100 29 88 99 100 100 100 6 3 33 59 100 100 100 100 100 100 100 60 88 99 100 100 100 100 100 100
100 100 100 100 100 100 100 100 100 100 100 100 100 100 100 100 100 99 100 100 100 100 100 100 100 100 100 99 84 100 100 100 100 100 100 100 100 100 100 100 73 100 100 44 61
100 100 100 100 100 100 100 100 100 100 100 100 100 100 100 100 100 100 100 100 100 100 100 100 100 100 98 8 93 100 100 100 100 100 100 93 25 100 100 36 93 100 100 100 100
100 100 100 100 100 100 100 100 100 100 100 100 100 100 100 100 100 100 100 100 100 100 100 100 100 100 99 100 100 100 100 100 100 100 100 100 100 100 100 100 100 100 100 100 100
100 100 100 100 100 100 100 100 100 100 100 100 100 100 100 100 100 100 100 100 100 100 100 100 100 100 100 100 93 100 100 100 100 100 100 100 100 100 100 100 100 100 100 100 100
100 100 100 100 100 100 100 100 100 100 100 100 100 100 100 100 100 100 100 100 100 100 100 100 100 100 100 73 33 100 100 13 5 51 100 100 100 100 100 100 100 100 100 100 100
72 70 97 22 18 13 5 23 63 94 92 86 95 100 100 100 100 100 100 81 100 97 19 71 100 100 100 100 100 100 12 56 30 100 100 100 100 100 87 100 100 100 100 100 100

GFSSW_prec_cloud_012.txt.gz
Cloud_Cover
18 24 5 73 48 15 36 63 81 12 80 14 11 5 63 54 13 5 5 14 19 26 8 5 2 2 5 1 5 3 0 0 0 0 0 0 0 0 0 0 0 0 0 0 0
3 4 2 5 10 5 3 10 32 42 4 8 5 5 62 36 5 5 5 4 4 0 0 1 0 0 0 0 0 0 0 0 0 0 0 0 0 0 0 0 0 0 0 0 0
0 0 0 0 0 0 0 5 4 6 49 84 90 6 5 12 1 0 0 0 0 0 0 0 0 0 0 0 0 0 0 0 2 2 5 2 83 5 5 0 0 0 0 0 0
0 0 0 0 0 0 0 0 0 0 0 0 0 0 0 4 0 0 5 5 3 0 0 0 0 0 0 0 0 0 1 0 2 2 5 5 18 12 1 0 6 0 0 0 0
0 0 1 0 0 0 0 0 0 0 0 0 1 3 8 96 2 8 5 5 5 6 5 5 4 0 0 0 0 0 5 5 5 5 15 0 14 100 2 0 5 0 0 0 0
5 5 5 5 2 0 0 0 0 0 0 0 3 5 21 100 13 5 5 5 5 5 5 5 5 0 0 0 0 4 5 5 5 1 22 0 4 5 0 0 0 0 0 0 0
5 5 5 5 5 0 2 2 3 0 3 26 12 0 2 76 62 5 0 2 11 5 5 0 2 0 0 0 0 0 5 5 5 26 3 0 71 5 0 0 0 0 0 0 0
69 97 46 78 67 5 5 5 8 5 14 32 19 5 44 96 45 7 2 5 5 5 5 31 87 66 17 5 55 5 0 3 35 2 2 1 93 5 1 0 5 6 1 0 0
75 41 37 18 46 47 5 36 56 37 22 14 11 5 94 83 55 55 7 14 7 5 15 83 64 100 98 100 10 5 64 26 36 86 0 0 90 65 2 4 1 26 57 0 0
85 94 92 100 100 97 33 5 5 34 22 9 13 5 6 47 64 91 100 100 38 77 57 100 19 84 50 16 12 98 91 88 93 63 0 4 67 92 8 0 5 5 0 0 0
100 5 6 26 86 100 54 41 98 5 47 64 42 100 38 6 79 100 100 100 74 98 100 42 58 98 36 5 5 5 20 27 99 100 8 75 52 100 100 14 5 5 0 0 0
96 92 88 73 26 43 56 14 5 5 5 8 51 31 82 19 52 100 98 71 100 89 100 71 69 5 2 5 3 8 89 100 100 100 42 6 27 100 100 100 58 100 46 5 2
96 63 82 5 5 8 5 10 5 2 0 18 8 1 5 22 8 75 87 78 99 85 73 72 100 100 83 34 1 5 4 57 5 94 100 99 96 100 100 100 100 100 100 100 86
100 100 100 56 25 70 27 24 62 14 0 0 1 4 5 71 75 7 5 22 90 100 100 100 99 100 100 100 22 21 39 23 20 13 96 64 94 100 100 100 100 100 97 100 85
100 100 100 99 22 55 49 49 5 46 23 0 2 5 94 100 52 82 53 92 84 100 100 100 98 100 100 98 5 5 19 56 100 85 100 100 69 100 100 100 100 100 100 100 32
83 100 100 100 100 55 39 100 96 80 69 0 0 1 5 14 100 100 100 42 6 50 91 97 88 85 97 69 67 56 29 21 25 99 100 99 25 100 100 100 100 99 100 100 100
54 86 100 100 100 100 96 76 65 100 42 4 12 5 5 40 82 98 99 47 54 88 79 20 48 52 49 21 75 85 36 8 22 79 98 96 75 100 100 100 100 89 29 91 100
99 99 94 100 100 99 100 100 100 53 6 3 11 66 98 100 100 100 76 36 7 50 57 39 5 97 5 38 94 89 100 84 98 8 12 7 75 100 100 100 100 100 100 100 98
57 72 100 100 100 100 100 100 16 14 47 20 100 100 68 97 100 100 100 100 88 100 100 96 90 57 54 72 8 98 100 100 100 100 79 9 5 78 100 100 100 100 74 66 99
100 100 100 100 100 100 100 98 84 100 100 100 100 100 100 62 100 100 100 82 100 98 100 100 100 60 90 99 5 99 100 100 96 100 100 46 81 76 100 100 83 100 100 100 33
100 100 100 100 100 100 100 100 100 100 100 100 100 100 100 100 100 100 100 100 100 100 100 100 100 100 52 96 100 100 100 100 100 100 100 100 100 100 84 99 100 100 100 100 100
100 100 100 100 100 100 100 100 100 100 100 100 100 100 100 100 100 100 100 100 100 100 100 100 100 100 100 100 100 100 100 100 100 100 100 100 98 100 100 100 100 100 100 88 6
100 100 100 100 100 100 100 100 100 100 100 100 100 100 100 100 100 100 100 100 100 100 100 100 100 100 100 100 100 100 100 100 100 100 100 100 100 100 100 100 100 100 100 100 100
100 100 100 100 100 100 100 100 98 100 100 100 100 100 100 100 100 100 100 100 100 100 100 100 100 100 100 100 100 100 100 100 100 100 100 100 100 100 100 100 100 100 100 100 100
100 100 100 100 100 100 100 97 80 60 100 100 100 100 100 100 100 100 100 100 100 100 100 100 100 100 99 100 100 100 100 100 100 100 100 100 100 100 100 100 100 100 100 100 100
100 100 100 100 100 100 100 100 100 100 100 100 100 97 37 98 100 100 91 84 91 48 97 96 91 100 69 47 100 100 65 92 66 99 100 100 92 51 38 96 100 100 100 100 100
5 26 85 6 11 13 13 5 14 17 47 47 100 98 99 86 99 100 100 100 98 97 94 97 100 100 82 3 40 79 0 0 0 0 4 86 100 96 59 90 98 87 100 100 98

GFSSW_prec_cloud_015.txt.gz
Cloud_Cover
0 2 36 8 5 4 40 37 5 6 71 39 43 75 95 26 5 8 17 5 5 0 0 0 0 0 0 0 0 0 1 0 0 0 0 0 0 26 47 0 0 0 0 0 0
0 0 0 2 28 4 1 12 27 10 5 6 25 34 8 53 15 15 11 5 1 0 0 0 0 0 0 0 0 0 0 0 0 0 95 5 89 100 16 0 48 4 0 0 0
0 0 0 0 0 5 0 0 0 0 0 1 3 74 85 73 21 5 2 0 0 0 0 0 0 0 0 0 0 0 0 0 0 0 39 16 53 68 2 0 43 0 0 0 0
0 0 0 0 0 0 0 0 0 0 0 0 0 0 2 5 3 0 0 0 5 0 0 0 0 0 1 0 0 0 0 0 0 0 5 51 100 90 0 0 30 0 0 0 0
1 4 0 0 0 3 3 4 0 0 0 1 1 0 0 7 0 3 4 0 0 0 2 5 4 1 2 0 0 5 1 0 0 0 7 46 100 100 2 0 0 1 0 0 0
5 5 2 5 4 5 5 5 4 0 0 12 12 3 4 86 4 1 0 4 3 1 4 0 0 5 7 5 5 5 5 0 2 1 1 1 18 62 6 7 1 1 5 0 0
5 1 5 5 5 5 5 33 5 5 5 26 18 51 93 67 60 5 5 5 7 30 12 5 5 5 32 8 5 48 5 5 5 5 0 0 4 0 0 0 2 0 5 1 0
9 5 5 5 5 5 30 58 61 35 5 21 47 18 100 100 76 42 43 6 5 5 55 46 5 5 5 29 100 8 15 78 86 11 3 5 96 10 0 0 4 5 5 0 0
49 34 23 62 17 8 5 10 20 14 27 44 69 10 100 100 100 98 6 6 7 13 5 5 5 28 79 93 16 5 86 99 100 100 28 12 100 82 2 0 4 5 5 0 0
12 93 5 5 26 4 26 22 71 3 4 8 8 52 38 98 100 100 100 91 66 27 7 5 5 2 16 12 11 7 5 5 28 63 6 92 100 100 100 69 98 24 4 0 0
9 5 5 5 95 32 88 5 46 60 87 70 4 17 88 100 100 100 100 100 100 100 46 5 5 5 5 5 5 5 5 5 5 25 6 100 100 100 100 100 100 100 6 1 0
99 74 16 30 5 5 7 6 5 40 22 10 5 3 5 52 74 100 100 100 100 100 100 71 80 54 27 61 38 34 5 93 100 99 25 65 100 100 100 100 100 100 88 11 30
100 100 100 18 5 5 5 40 91 5 7 90 22 13 25 95 80 100 93 84 100 100 100 25 21 43 19 38 72 89 46 40 96 96 85 95 100 100 100 100 100 100 100 100 100
100 100 100 22 5 5 5 5 5 3 2 2 57 22 10 43 94 100 100 91 60 58 100 100 98 65 92 57 62 14 40 76 34 95 45 98 95 100 100 100 100 100 100 100 100
100 100 100 98 72 56 5 5 5 5 8 0 5 6 87 99 80 80 71 8 90 100 100 100 100 94 80 69 13 59 36 20 88 39 69 100 26 100 100 100 100 100 100 100 100
80 100 100 75 90 89 52 5 5 61 100 5 5 5 5 6 55 94 58 58 85 80 87 33 67 100 100 100 100 60 27 17 3 38 98 86 73 100 100 100 100 100 100 100 100
100 94 100 82 99 100 28 7 45 98 5 9 5 6 41 65 83 90 71 93 100 99 79 99 84 61 100 100 100 100 84 20 22 8 13 26 69 100 100 100 100 100 100 83 4
100 99 100 100 100 100 97 79 100 94 5 70 63 5 5 90 96 52 24 5 89 100 87 13 64 65 38 98 98 100 100 100 100 15 36 5 33 100 100 100 100 100 100 73 3
100 100 100 100 100 100 98 100 74 90 100 100 100 66 79 34 78 97 90 100 93 100 100 100 15 100 100 100 98 100 100 100 100 100 93 4 11 86 100 100 48 5 5 5 2
91 100 100 100 100 100 100 100 88 100 100 100 100 100 100 100 100 100 100 65 100 100 100 100 92 100 100 100 50 100 100 100 100 100 100 25 6 15 100 100 100 89 20 42 89
100 100 100 100 100 100 100 100 98 100 100 100 100 100 100 100 100 100 100 100 100 100 100 100 100 100 100 100 100 100 100 100 100 100 100 100 100 100 100 100 100 100 100 69 100
100 100 100 100 100 100 100 100 100 100 100 100 100 100 100 100 100 100 100 100 100 100 100 100 100 100 100 100 100 100 100 100 100 100 100 100 100 100 100 100 100 100 100 100 100
100 100 100 100 100 100 100 100 100 100 100 100 100 100 100 100 100 100 100 100 100 100 100 100 100 100 100 100 100 100 100 100 100 100 100 100 100 100 100 100 100 100 100 100 100
100 100 100 100 100 100 100 100 100 100 100 100 100 100 100 100 100 100 100 100 100 100 100 100 100 100 100 55 73 100 100 100 100 100 100 100 100 100 100 100 100 100 100 100 100
100 100 100 79 97 100 100 100 33 56 90 100 97 100 100 100 100 100 80 93 75 100 100 100 100 59 72 67 100 82 91 91 99 100 100 100 100 100 90 48 93 100 100 94 100
90 99 98 98 99 100 100 100 100 100 100 100 100 100 93 40 30 100 89 50 82 60 93 100 100 100 86 18 100 100 19 5 5 4 99 100 26 5 5 6 5 99 99 39 5
5 7 20 5 5 13 15 5 5 5 48 26 59 77 6 24 59 100 100 96 100 100 100 100 99 98 90 5 68 97 1 0 0 0 0 2 30 7 5 5 10 5 10 6 5

GFSSW_prec_cloud_021.txt.gz
Cloud_Cover
3 5 0 0 0 0 0 0 5 5 5 5 5 23 46 14 5 2 0 4 5 2 5 7 5 2 0 0 0 0 0 0 0 0 0 4 68 61 0 0 4 0 0 0 0
0 0 0 0 0 0 0 0 0 4 5 5 0 0 0 1 0 4 5 7 30 55 85 12 0 0 0 0 0 0 2 0 0 0 0 0 38 100 33 0 25 3 3 0 0
3 0 0 0 0 0 0 0 0 0 0 0 0 0 0 0 0 0 0 5 18 24 2 0 0 0 0 4 0 5 0 0 1 0 0 0 0 99 94 60 100 73 3 0 0
18 16 5 5 5 1 0 0 0 0 0 2 5 5 3 5 0 0 0 0 0 0 0 0 0 0 3 0 0 4 4 0 2 0 0 0 4 5 98 3 15 87 81 32 5
5 91 86 49 67 41 3 4 5 1 0 2 7 71 42 28 2 0 0 0 0 2 2 0 0 0 0 4 1 5 5 5 0 0 5 1 0 5 48 0 4 4 5 51 5
69 19 47 57 62 79 97 40 65 13 5 5 96 97 91 80 5 0 5 5 5 5 5 5 5 5 5 5 5 5 5 5 1 0 5 14 22 5 33 3 2 4 5 5 3
10 63 100 98 99 85 44 49 63 74 85 74 100 100 100 99 86 5 36 100 97 41 62 5 5 5 5 5 14 39 21 62 14 5 4 5 97 6 5 5 71 5 0 0 0
5 3 5 5 5 84 100 22 61 70 97 100 54 28 100 100 100 100 86 64 25 46 48 22 12 5 5 3 4 5 5 69 100 49 5 4 90 82 60 59 49 6 8 0 0
35 11 5 5 4 2 5 48 90 69 92 87 71 61 96 100 100 84 100 100 100 100 100 98 39 39 100 75 7 16 5 6 9 100 4 4 47 100 96 9 5 34 80 100 100
98 99 58 5 4 2 5 58 73 69 86 47 22 12 54 99 100 99 94 100 98 38 50 82 36 75 73 21 9 5 6 68 43 44 5 5 86 59 28 5 5 18 6 27 44
100 81 93 100 78 6 5 22 5 61 84 98 58 76 12 66 100 100 100 97 45 18 6 9 7 46 10 13 28 17 47 13 79 81 70 100 100 100 12 71 100 100 4 0 0
100 97 60 82 97 46 13 9 12 14 80 86 65 6 97 84 100 100 100 100 100 100 100 91 12 20 93 89 59 6 71 88 100 96 8 100 100 100 66 76 36 40 17 41 6
94 98 7 18 70 28 22 22 5 3 2 82 9 15 20 88 97 96 92 77 83 100 100 98 51 12 9 21 84 100 64 34 54 59 99 73 100 100 100 86 99 9 61 27 72
44 76 82 36 16 6 5 84 5 2 0 0 8 74 29 6 5 8 21 16 12 80 100 100 100 100 71 64 6 6 12 5 48 74 46 44 32 100 100 100 19 14 91 45 96
100 84 74 100 30 5 5 85 7 5 6 2 4 5 95 100 14 5 5 3 5 10 20 85 100 100 100 99 92 88 100 86 11 78 91 96 70 100 100 100 100 100 100 98 89
100 94 84 65 15 6 36 7 47 72 100 5 5 5 5 8 39 40 39 5 5 5 1 5 42 98 98 81 72 83 65 81 66 88 100 89 25 100 21 80 85 99 100 88 19
100 100 100 62 33 51 38 79 70 95 83 5 25 65 13 6 45 60 12 6 13 17 28 5 28 46 11 21 45 92 89 30 23 83 93 86 33 100 100 91 27 19 32 60 68
100 100 100 100 43 92 81 100 100 100 100 36 100 73 96 86 30 42 6 34 90 28 5 6 60 40 74 100 100 93 89 100 98 27 5 45 56 100 100 98 94 60 25 5 98
100 100 100 99 96 88 83 100 49 72 71 100 97 79 50 87 84 49 27 27 74 99 100 100 100 53 100 100 97 100 100 100 100 99 90 5 12 74 96 23 12 62 100 100 13
100 100 100 100 100 100 92 80 100 100 92 62 21 45 97 100 76 89 51 36 100 100 100 100 100 89 100 100 100 100 100 100 100 100 100 51 65 5 97 100 77 30 32 88 100
100 100 100 100 100 99 94 100 100 100 100 92 75 87 100 100 100 98 100 100 100 100 100 100 100 91 100 100 100 100 100 100 100 100 100 100 100 100 92 100 100 100 75 100 100
100 100 100 100 100 100 100 100 100 100 100 100 100 100 100 100 100 100 100 100 100 100 100 100 100 100 100 100 100 100 100 100 100 100 100 100 100 100 100 100 100 100 100 99 100
100 100 100 100 100 100 100 100 100 100 100 100 100 100 100 91 95 100 100 100 100 100 100 100 100 100 99 87 99 100 100 100 100 100 100 100 100 100 100 100 100 100 100 100 100
100 100 100 100 100 100 100 100 100 100 92 100 92 100 98 99 100 100 100 100 100 100 76 12 74 96 74 3 10 58 12 51 100 100 100 100 100 56 73 100 100 73 50 100 100
100 100 100 100 100 100 100 100 100 100 100 100 100 100 100 100 100 100 100 97 36 84 61 26 51 37 13 5 49 87 29 5 93 73 100 57 80 5 4 95 8 3 22 10 16
100 100 100 100 100 86 100 100 87 100 100 100 100 100 100 100 100 100 12 60 28 23 27 94 62 5 5 5 5 5 0 5 5 56 98 46 16 0 0 0 6 38 66 65 90
98 100 100 100 98 100 100 100 100 100 100 100 100 100 100 100 85 6 5 7 5 43 62 34 27 15 4 2 4 15 0 0 1 0 12 74 5 0 0 0 0 0 2 5 8

GFSSW_prec_cloud_024.txt.gz
Cloud_Cover
4 5 3 5 5 1 3 3 0 4 4 6 95 61 53 5 1 0 1 4 5 5 5 39 5 62 53 4 0 0 0 0 0 0 0 4 5 69 1 0 4 0 0 0 0
5 4 1 5 5 0 0 0 0 0 0 0 5 10 37 5 3 0 0 2 5 5 5 88 62 11 16 0 0 0 0 0 0 0 0 0 0 2 2 0 60 92 3 0 0
10 35 6 4 0 0 0 0 0 0 0 0 0 0 0 0 0 0 0 0 0 0 1 0 0 0 0 0 0 0 1 0 0 0 0 0 0 0 4 13 3 16 91 7 0
45 55 65 73 15 5 5 5 4 0 0 0 0 0 5 5 2 5 5 5 0 0 0 0 0 0 0 0 0 4 2 0 0 0 1 5 0 0 5 0 0 0 0 3 0
57 58 56 73 96 17 50 38 5 5 5 5 5 0 1 4 5 38 18 10 5 1 0 0 2 1 5 2 5 5 4 2 0 0 0 0 0 2 10 2 0 0 0 0 0
92 16 96 56 77 67 44 7 46 17 5 13 32 22 19 21 32 10 63 97 77 20 5 5 5 5 30 45 22 11 7 38 5 0 0 2 2 4 0 46 72 0 0 0 0
89 95 37 100 100 100 99 100 90 98 100 100 94 87 98 99 100 99 99 100 100 100 97 65 5 42 32 9 9 5 46 36 10 3 2 11 76 5 5 5 87 100 6 0 0
77 7 5 5 5 5 39 14 34 31 98 81 68 100 100 100 100 99 100 100 90 100 100 100 82 45 41 68 5 37 25 5 51 3 0 0 75 50 6 20 48 23 4 0 0
87 89 76 14 14 18 5 5 5 5 5 24 10 56 100 100 93 13 6 69 58 58 99 100 98 100 100 100 74 63 51 47 5 20 38 3 2 72 97 5 11 12 5 5 4
100 100 100 44 100 98 69 5 5 5 5 26 7 6 89 100 90 67 17 5 5 16 11 54 46 22 61 32 95 100 98 22 14 40 64 85 11 40 5 42 61 40 0 3 3
100 96 85 37 86 100 95 93 5 5 26 16 47 93 11 60 87 100 100 100 68 6 5 5 5 5 5 48 11 21 49 85 16 5 20 28 52 71 5 42 100 99 52 4 0
97 100 100 100 100 84 67 94 98 69 96 100 14 56 94 74 34 66 84 98 100 95 13 5 5 20 5 55 58 8 6 78 84 23 5 43 92 100 100 78 80 96 100 100 44
100 100 100 100 100 100 97 97 69 77 99 99 96 71 14 19 22 45 70 64 86 53 21 51 72 5 18 72 88 92 98 94 88 89 98 45 63 37 72 100 99 100 100 100 100
88 99 80 100 100 100 77 73 26 50 41 88 100 100 96 22 5 5 7 27 55 22 61 94 100 75 18 5 5 57 30 6 21 46 99 23 98 100 16 17 97 100 100 100 100
100 100 100 84 88 98 12 51 60 8 32 5 36 28 97 78 5 2 0 0 3 10 49 93 98 98 100 100 30 8 7 85 42 91 34 49 5 27 69 5 96 100 100 100 100
100 100 100 88 83 86 46 69 55 82 59 5 5 5 8 22 15 75 59 5 5 5 5 5 69 5 6 40 72 100 15 68 7 5 97 33 10 100 100 86 8 57 100 100 100
100 100 100 100 89 90 100 80 94 96 48 50 18 5 5 6 50 59 34 5 5 4 2 5 5 42 22 6 5 43 60 11 5 14 29 55 37 100 100 19 5 5 50 80 99
100 100 100 100 100 100 98 96 100 67 67 5 24 85 92 81 23 99 77 92 98 17 5 5 5 31 23 36 73 64 82 99 38 48 5 86 47 100 100 20 6 6 6 69 8
100 100 100 100 100 100 100 100 99 40 52 88 81 32 89 96 94 7 23 28 93 99 98 48 5 82 5 100 100 98 100 100 100 100 77 34 53 100 100 99 91 14 66 5 100
100 100 100 100 100 100 100 100 100 100 73 100 100 12 27 100 31 32 76 5 56 100 100 77 37 72 77 44 100 100 100 100 100 100 100 100 100 100 100 94 100 100 96 99 100
100 100 100 100 100 100 100 100 95 100 100 100 99 69 96 100 99 96 64 100 100 100 100 100 100 51 70 100 100 100 100 100 100 100 100 100 100 100 70 100 59 100 100 41 85
100 100 100 100 100 100 100 100 97 100 100 100 96 93 94 100 100 100 100 100 95 97 100 100 99 99 100 100 100 100 100 100 100 100 100 100 100 51 3 38 85 100 100 100 79
100 100 100 100 100 100 100 100 100 100 100 96 100 100 100 100 100 100 100 100 100 100 100 100 100 100 100 100 100 100 100 100 100 97 72 99 32 5 5 9 34 73 36 97 100
100 100 100 100 100 100 100 100 100 100 100 100 100 100 100 100 100 100 100 100 100 100 100 100 100 100 100 100 100 100 84 43 55 99 25 7 4 0 0 41 25 5 3 0 2
100 100 100 100 100 100 100 100 100 100 100 100 100 100 100 100 100 100 100 100 100 100 100 100 100 100 100 100 100 15 5 4 5 8 87 0 0 0 0 1 4 0 0 0 0
100 100 100 100 100 100 100 100 100 100 100 100 100 100 100 100 100 100 100 100 100 92 100 100 100 100 84 44 5 5 0 5 0 0 0 3 4 0 1 4 5 3 2 0 0
100 100 100 100 100 100 100 100 100 100 100 100 100 100 100 100 100 100 100 94 100 100 100 100 100 100 40 5 5 20 2 0 0 0 0 1 1 5 4 5 5 3 1 0 0

GFSSW_prec_cloud_027.txt.gz
Cloud_Cover
24 29 5 11 5 15 18 29 5 4 1 3 5 4 66 84 79 51 11 1 1 0 3 5 5 5 56 40 13 0 0 0 0 0 0 0 0 0 0 0 58 10 1 1 0
4 2 5 5 3 26 56 5 0 0 0 0 0 0 2 3 5 5 5 0 0 0 0 0 0 1 1 0 0 0 0 0 0 0 0 0 0 0 0 0 1 96 6 0 0
0 0 5 5 51 8 0 1 0 0 0 0 0 0 0 3 2 0 1 5 5 5 0 0 0 0 0 0 0 0 0 0 0 0 0 0 0 0 0 3 0 0 0 0 0
5 5 5 7 72 65 60 5 5 4 1 0 0 0 0 0 0 5 5 5 41 6 5 0 0 0 0 0 0 0 0 0 0 0 0 1 0 0 0 1 4 0 0 0 0
22 78 47 47 73 58 73 45 5 18 5 5 5 5 5 5 0 4 8 18 18 13 5 1 0 0 1 5 5 5 5 5 5 0 0 4 2 5 1 2 1 0 0 0 0
71 56 18 67 62 31 11 66 24 19 6 64 56 6 10 5 4 2 26 100 98 43 67 32 5 4 9 5 5 5 5 5 5 0 3 0 0 4 5 93 94 5 0 0 0
52 13 15 8 43 98 100 100 96 93 100 98 100 100 100 98 96 82 95 93 100 100 100 100 100 100 82 20 11 5 12 5 5 5 13 0 0 0 0 5 10 100 8 29 0
100 100 89 100 100 94 69 62 91 100 100 42 65 95 99 98 68 100 100 15 13 71 27 40 94 100 100 100 95 100 7 56 95 8 5 8 20 83 1 0 5 5 5 1 46
100 100 100 97 100 47 5 5 5 8 37 92 75 41 96 95 40 13 38 31 40 6 5 5 6 68 86 77 92 95 87 100 96 100 73 10 11 53 99 9 0 0 0 4 5
100 100 100 14 100 100 79 59 47 58 6 8 27 5 14 56 15 14 56 5 5 5 5 5 14 52 10 21 69 6 6 27 100 100 92 67 100 56 14 98 96 9 0 5 4
100 100 96 100 67 100 100 100 92 73 39 11 8 58 5 17 30 68 96 43 5 5 5 4 5 11 5 5 5 5 5 27 98 85 42 98 100 100 97 9 76 100 100 99 21
100 94 100 100 100 100 90 89 52 83 53 29 64 49 91 55 73 81 54 85 94 25 5 5 5 5 5 18 25 12 19 5 5 6 5 15 73 100 89 8 82 100 100 100 100
100 100 99 100 100 100 100 100 100 100 100 100 99 84 15 48 37 70 68 71 40 6 5 24 34 16 5 5 14 87 99 90 55 12 5 50 100 100 100 100 100 73 25 30 15
100 100 100 100 97 100 100 100 100 100 97 73 100 52 7 7 44 28 17 32 59 50 30 87 87 38 6 8 5 84 5 5 5 3 15 74 99 100 88 49 86 99 16 5 5
100 100 100 13 76 100 100 100 100 99 46 80 67 74 100 100 93 72 35 9 21 6 10 37 78 97 94 61 38 58 7 5 5 5 5 5 7 62 96 19 81 79 75 17 91
100 100 100 88 72 95 96 100 100 100 100 100 100 100 93 91 100 100 100 100 100 89 56 91 93 73 10 6 6 8 5 28 6 5 5 91 20 99 95 5 50 65 99 94 66
100 100 100 100 94 100 100 100 100 99 88 47 83 79 62 28 33 94 100 80 75 100 100 100 96 100 91 86 100 45 18 7 8 78 77 24 52 86 35 12 8 21 33 19 6
100 100 100 100 100 100 100 100 100 98 86 96 98 83 70 84 66 68 62 57 52 32 13 22 90 20 33 88 73 96 100 100 43 5 21 90 100 82 20 8 5 23 41 5 45
100 100 100 100 100 100 100 100 100 100 100 100 92 69 94 99 74 57 21 23 62 97 71 23 5 19 5 5 77 48 55 28 60 100 18 39 84 69 62 20 96 60 39 8 100
100 100 100 100 100 100 100 100 100 100 100 92 74 95 95 100 66 52 44 5 36 87 97 61 79 17 5 5 58 100 99 68 93 89 99 11 96 100 100 99 100 100 100 100 84
100 100 100 100 100 100 100 100 100 100 100 100 92 76 74 100 98 24 72 6 5 6 100 100 93 46 27 78 98 98 96 81 71 100 100 98 100 100 100 100 100 100 100 100 51
100 100 100 100 100 100 100 100 100 100 100 99 40 80 94 100 95 91 62 86 18 5 28 93 100 99 100 100 100 100 100 92 100 100 100 76 23 99 24 41 75 99 74 86 28
100 100 100 100 100 100 100 100 100 100 100 100 98 98 100 97 96 99 100 73 8 8 5 26 7 32 53 99 100 100 100 100 100 100 18 82 27 38 6 64 58 5 4 2 3
100 100 100 100 100 100 100 100 100 100 90 100 100 100 100 100 100 87 70 100 100 100 94 77 83 44 67 100 100 100 100 100 100 100 100 94 100 85 98 46 5 5 0 0 0
100 100 100 100 100 100 100 100 100 100 100 100 100 100 100 80 100 100 100 100 100 100 100 100 100 100 100 100 100 100 100 100 98 100 100 24 100 100 99 12 5 0 0 2 5
100 100 100 100 100 100 100 100 100 100 100 100 100 100 100 100 100 100 100 100 100 100 100 100 100 100 100 100 100 100 100 99 100 100 100 100 37 94 5 0 0 0 0 2 5
100 100 100 100 100 100 100 100 100 100 100 100 100 100 100 100 100 100 100 100 100 100 100 100 100 100 100 100 96 18 99 100 100 100 100 100 88 5 1 0 0 3 5 5 6

GFSSW_prec_cloud_030.txt.gz
Cloud_Cover
88 85 86 52 88 28 65 70 53 50 25 5 0 24 5 5 8 83 22 75 5 5 0 0 0 2 4 4 5 5 0 0 0 0 0 0 0 0 0 0 0 4 5 0 0
5 78 100 100 98 30 6 18 50 52 5 2 0 0 0 1 0 16 6 5 5 2 0 2 1 0 0 0 0 0 0 0 0 0 0 0 0 0 0 0 0 2 2 0 0
5 5 5 5 5 5 5 5 5 3 5 5 0 0 0 0 0 2 5 1 0 0 0 5 4 0 0 0 0 0 0 0 0 0 0 0 0 0 4 0 0 0 0 0 0
77 62 6 3 4 5 57 68 22 12 3 0 0 0 0 0 0 0 0 0 1 4 5 5 5 3 0 0 0 0 0 0 0 0 0 2 0 0 1 6 0 0 0 0 0
63 99 65 5 5 6 17 57 90 80 36 5 5 5 5 5 1 5 2 0 0 3 6 7 5 4 2 1 0 2 0 0 0 0 0 4 0 0 0 7 5 0 0 0 0
100 100 77 45 23 51 21 15 100 100 100 98 84 56 35 22 5 24 17 13 5 20 73 76 83 90 88 6 8 18 5 5 1 0 0 0 0 5 0 5 3 0 0 0 0
100 100 100 100 97 85 62 78 87 95 100 100 100 99 99 93 83 40 85 76 99 100 100 100 83 61 100 100 100 99 100 97 10 5 3 4 63 5 5 5 5 0 0 1 0
100 100 100 100 100 100 100 82 100 100 100 100 100 94 99 100 99 99 41 5 29 19 13 8 17 41 72 25 87 91 57 100 100 74 89 32 85 96 5 5 21 0 0 0 0
85 100 100 100 100 90 100 100 99 71 45 91 100 99 100 100 63 42 46 61 85 61 5 5 5 5 5 8 88 98 100 100 100 100 82 81 99 100 100 70 3 0 0 2 0
94 100 100 100 100 100 100 100 97 55 17 5 26 21 95 82 12 5 11 12 66 67 53 15 5 5 5 2 5 5 5 10 42 27 6 98 100 100 100 100 100 88 45 5 3
100 100 100 100 100 100 100 100 100 100 88 39 29 5 8 5 35 64 90 12 5 5 15 80 13 11 5 5 5 14 42 65 54 7 9 7 58 53 79 100 100 100 100 100 100
100 100 100 100 100 100 100 100 100 26 85 100 47 5 73 69 83 41 6 13 35 20 8 5 5 5 5 5 14 21 44 5 46 34 68 97 98 16 5 26 81 71 93 100 100
100 100 98 100 100 100 100 100 98 79 37 100 54 12 21 53 85 100 93 30 57 14 5 48 53 6 44 5 5 5 5 5 5 5 5 16 24 36 10 42 81 100 100 100 100
100 100 100 100 100 100 100 100 98 100 54 58 100 77 97 90 89 100 13 54 98 96 71 59 34 12 24 5 7 5 5 5 5 5 5 5 3 32 3 3 5 15 64 100 100
100 100 100 100 100 100 100 100 100 100 69 48 23 100 100 100 87 51 21 10 45 75 100 41 59 59 54 7 23 5 5 5 5 0 2 6 0 5 8 4 6 4 0 1 8
100 100 100 100 100 100 100 100 100 96 80 17 99 100 100 100 100 100 100 100 80 26 10 28 54 53 61 27 96 93 72 24 13 9 5 21 1 1 21 8 77 57 22 5 4
100 100 100 100 100 100 100 100 100 100 26 36 21 13 71 84 99 96 100 100 100 100 100 100 98 40 52 92 74 79 69 80 52 53 50 48 46 31 5 6 48 11 27 42 13
100 100 100 100 100 100 100 100 100 100 99 44 61 96 85 77 73 75 94 100 99 100 100 100 100 60 99 91 96 99 100 90 8 35 73 40 66 100 97 71 8 5 8 41 91
100 100 100 100 100 100 100 100 100 100 100 100 97 100 100 100 99 100 80 100 100 100 89 98 79 92 96 100 99 100 97 60 17 24 5 5 53 77 64 86 98 14 16 11 44
100 100 100 100 100 100 100 100 100 100 100 100 100 100 100 100 46 75 87 100 49 88 26 64 57 100 99 100 100 100 69 41 16 5 84 5 5 5 5 5 36 90 59 34 70
100 100 100 100 100 100 100 100 100 100 100 100 100 100 100 100 96 100 86 26 53 82 99 100 99 30 27 76 71 91 40 35 28 5 5 6 0 0 8 14 63 100 100 100 100
100 100 100 100 100 100 100 100 100 100 100 100 100 100 74 100 88 98 89 40 62 96 97 100 100 77 98 76 48 91 13 7 5 5 5 5 0 70 100 100 100 100 100 6 100
100 100 100 100 100 100 100 100 100 100 100 100 100 96 99 97 91 100 34 97 77 81 85 94 74 47 88 98 100 34 7 6 16 63 84 100 85 100 100 100 100 92 100 100 27
100 100 100 100 100 100 100 100 100 100 100 100 100 91 100 100 100 93 10 41 98 36 6 50 5 6 18 100 90 99 97 79 100 100 100 100 100 100 100 100 100 100 100 83 69
100 100 100 100 100 100 100 100 100 100 100 100 100 87 100 100 100 100 100 100 100 100 89 70 99 96 94 100 100 100 91 100 100 100 100 100 100 100 100 100 100 10 7 5 19
100 100 100 100 100 100 100 100 100 100 100 100 100 100 100 97 100 100 100 100 100 68 100 100 97 100 100 100 100 99 42 100 100 96 100 100 100 100 100 100 100 97 100 79 4
100 100 100 100 100 100 100 100 100 100 100 100 100 100 100 100 100 100 100 100 100 100 100 100 100 100 100 100 100 10 81 100 100 100 100 100 100 97 71 92 100 81 5 0 5

GFSSW_prec_cloud_036.txt.gz
Cloud_Cover
5 35 100 58 8 76 98 52 91 100 100 21 8 8 7 5 4 3 10 5 7 13 11 10 18 5 0 0 0 0 0 0 0 0 0 0 0 0 0 0 0 0 0 0 0
15 95 100 84 100 100 86 74 26 92 100 22 28 20 5 18 5 2 5 5 5 3 5 49 16 9 0 0 0 0 0 0 0 0 0 0 0 0 0 0 0 0 0 0 0
100 81 14 76 51 100 97 19 75 99 100 95 68 73 24 48 15 0 0 0 1 5 0 2 5 5 0 0 0 0 0 0 0 0 0 0 0 0 0 0 0 0 0 4 4
97 100 99 100 100 100 100 72 97 100 100 22 37 56 68 7 14 13 5 0 0 0 0 0 4 5 3 0 5 0 0 0 0 0 0 0 0 0 0 0 0 0 0 1 5
100 89 82 75 84 73 57 29 20 44 5 5 5 5 24 12 5 5 5 0 0 0 0 0 0 0 0 0 5 0 0 0 1 0 3 1 1 0 0 0 0 0 0 3 0
100 100 100 100 100 100 98 93 100 100 35 5 5 5 42 19 5 5 5 5 5 5 5 4 5 5 0 0 4 5 5 5 2 0 5 3 4 0 0 0 0 0 4 0 0
100 100 100 100 100 100 100 100 100 100 100 60 5 29 84 91 10 5 9 9 6 5 5 5 5 5 5 5 33 67 78 18 5 1 0 5 0 0 0 0 0 0 0 5 3
100 100 100 100 99 100 100 100 100 100 87 57 22 58 100 99 93 58 8 40 45 49 21 19 12 19 9 20 51 96 98 58 5 5 5 46 9 0 0 2 3 0 0 0 0
100 100 100 100 100 100 100 100 100 100 100 42 46 62 100 100 99 57 95 18 5 5 38 55 65 75 100 30 5 14 72 16 5 5 5 7 29 0 3 5 5 0 0 0 0
100 100 100 100 100 100 100 100 100 100 100 100 82 62 100 100 100 25 9 30 13 5 15 5 9 96 75 5 91 74 25 74 19 4 5 61 94 6 46 20 17 5 5 53 13
100 100 100 100 100 100 100 100 100 100 100 100 100 100 100 100 100 76 10 5 82 100 100 9 83 40 5 5 15 5 5 29 5 5 12 9 79 42 48 58 49 5 5 5 5
100 100 100 100 100 100 100 100 100 100 100 98 100 100 100 100 100 100 22 27 43 97 33 8 15 5 5 5 5 5 5 5 0 0 4 5 28 16 5 4 2 0 1 3 5
100 100 100 100 100 100 100 100 100 100 99 100 88 100 100 100 100 100 78 33 12 5 6 5 5 28 5 5 5 5 5 5 5 1 3 1 4 5 4 0 0 0 0 0 0
100 100 100 100 100 100 100 100 100 100 63 100 100 100 100 100 100 100 100 100 84 72 63 5 70 13 7 12 5 24 5 5 5 0 0 0 1 5 5 5 4 5 5 0 0
100 100 100 100 100 100 100 100 100 100 29 100 100 100 100 100 100 100 100 100 100 100 100 100 99 100 91 24 8 72 78 39 7 5 4 7 1 5 98 54 45 84 68 55 93
100 100 100 100 100 100 100 100 100 100 55 27 100 100 100 100 100 100 100 100 100 100 100 100 100 100 100 100 100 100 100 100 100 86 6 29 6 76 69 80 93 78 15 5 17
100 100 100 100 100 100 100 100 100 97 100 100 98 100 100 100 100 100 64 17 99 100 100 100 100 100 100 100 100 100 100 98 67 84 5 29 8 70 57 96 100 98 76 46 28
100 100 100 100 100 100 100 100 100 96 100 100 100 100 90 100 100 100 100 100 100 100 100 100 100 100 100 100 100 100 100 100 45 48 54 33 97 93 100 100 100 100 100 100 100
100 100 100 100 100 100 100 100 97 46 84 100 100 77 68 100 100 100 100 100 100 100 100 100 100 100 100 100 100 100 100 100 100 100 100 87 99 100 100 100 100 100 93 9 5
100 100 100 100 100 100 100 100 68 100 80 100 100 100 100 100 100 100 100 100 100 100 100 100 100 100 100 100 100 100 100 100 100 100 100 100 100 100 100 100 100 100 100 93 49
100 100 100 100 100 100 100 100 100 96 99 100 100 100 100 100 100 100 100 100 100 100 100 100 100 100 100 100 100 100 100 100 100 100 98 93 97 100 100 100 100 83 100 95 81
100 100 100 100 100 100 100 100 100 100 100 100 100 100 100 100 100 100 100 100 100 100 100 100 100 100 100 100 100 100 100 100 100 100 54 5 73 100 60 100 68 95 7 26 86
100 100 100 100 100 100 100 100 100 100 100 100 100 100 100 100 100 100 100 100 100 100 100 100 100 100 100 100 100 100 100 100 100 100 98 26 45 91 75 20 10 5 5 4 21
100 100 100 100 100 100 100 100 100 100 100 100 100 100 100 100 100 97 100 100 100 100 100 100 100 100 100 100 100 100 100 100 93 100 96 34 57 95 72 70 37 5 5 64 100
100 100 100 100 100 100 100 100 100 100 100 100 100 100 100 100 100 100 100 100 100 100 100 100 100 99 100 100 96 100 100 100 100 100 100 100 85 100 100 99 10 5 100 100 99
100 100 100 100 100 100 100 100 100 100 100 100 100 100 100 100 100 100 100 100 100 100 100 100 100 100 100 100 100 100 100 100 100 87 76 100 68 100 68 9 97 100 98 87 100
100 100 100 100 100 100 100 100 100 100 100 100 100 100 100 100 100 100 100 100 100 100 100 100 100 100 100 100 100 62 100 45 12 37 79 36 88 100 100 100 100 100 100 100 100

GFSSW_prec_cloud_042.txt.gz
Cloud_Cover
6 61 6 5 12 17 12 5 91 31 5 15 24 18 10 7 2 5 2 3 0 0 0 3 2 4 5 5 1 0 0 0 0 0 0 0 0 0 0 0 0 0 0 0 0
29 20 22 18 5 36 9 50 60 19 11 82 100 70 5 97 88 5 3 3 3 4 0 0 5 5 5 2 0 0 0 0 0 0 0 0 0 0 0 0 0 0 0 0 0
100 100 70 11 98 6 5 5 47 100 21 5 27 10 5 100 36 0 5 5 5 5 5 0 0 0 0 0 0 0 0 0 0 0 0 0 0 0 0 0 0 0 0 0 0
100 100 100 93 76 31 14 5 78 96 67 100 100 100 28 22 98 66 5 5 5 5 4 5 4 0 0 0 0 0 0 0 0 0 0 0 0 0 0 2 0 0 0 0 0
100 100 100 100 100 83 70 17 81 18 26 62 100 100 57 69 88 98 5 3 4 5 5 5 3 0 0 0 0 0 0 0 0 0 0 0 0 0 2 0 0 0 0 0 0
100 100 100 100 100 100 100 93 40 5 21 37 12 99 20 5 7 50 6 1 0 3 5 5 5 0 0 0 0 0 0 0 1 0 0 0 0 0 0 0 0 0 0 0 0
100 100 100 100 100 100 100 100 100 99 99 59 100 100 93 5 5 5 5 5 5 4 5 5 5 0 5 4 0 0 0 0 3 0 0 0 0 5 0 0 0 0 0 0 0
100 100 100 100 100 100 100 100 100 100 100 100 90 73 98 12 39 5 5 5 5 5 5 5 5 2 1 3 0 0 0 1 5 3 0 4 0 0 0 0 0 0 0 0 0
100 100 100 100 100 100 100 100 100 100 100 100 99 84 100 100 96 7 53 16 7 5 10 25 12 14 11 6 4 5 5 24 5 5 0 0 0 2 0 0 0 0 0 0 0
100 100 100 100 100 100 100 100 100 100 100 100 100 100 99 99 88 75 28 33 10 7 5 64 6 28 92 2 2 5 5 5 5 0 5 2 1 0 0 0 0 0 0 0 0
100 100 100 100 100 100 100 100 100 100 100 100 100 97 100 100 100 100 100 72 47 44 22 36 80 100 5 5 5 5 5 21 22 0 5 5 1 0 2 1 5 5 5 5 0
100 100 100 100 100 100 100 100 100 100 100 100 100 100 100 100 100 100 100 100 100 92 74 100 100 52 5 5 5 24 15 79 13 0 0 5 14 2 1 5 5 5 5 5 5
100 100 100 100 100 100 100 100 100 100 13 100 93 99 100 100 100 100 100 100 100 100 99 6 45 100 97 80 5 5 7 76 5 0 0 5 8 16 5 18 57 73 48 44 5
100 100 100 100 100 100 100 100 100 100 12 35 89 9 57 100 59 100 100 100 100 100 100 48 91 100 100 46 21 0 5 4 1 0 0 2 10 99 97 100 100 100 100 48 5
100 100 100 100 98 100 100 100 100 100 33 5 48 10 7 100 100 100 100 100 88 99 31 100 100 100 84 100 36 5 5 5 7 5 4 11 62 95 100 100 100 100 100 47 65
100 100 100 100 100 100 100 100 100 100 2 1 39 100 100 100 100 100 100 100 100 52 5 15 36 73 100 98 97 24 46 100 73 5 4 93 98 5 100 100 100 100 100 100 87
100 100 100 100 100 100 100 100 100 98 20 2 10 100 100 100 100 100 100 88 64 63 95 100 87 31 67 100 100 100 92 42 31 5 5 47 33 12 95 100 100 100 100 100 100
100 100 100 100 100 100 100 100 91 76 100 91 18 100 100 100 100 100 100 70 68 99 98 5 20 97 100 100 100 100 100 100 25 33 5 4 1 17 100 100 100 100 100 100 100
100 100 100 100 100 100 100 100 53 20 80 100 100 95 100 100 100 100 100 100 100 100 100 97 19 94 100 100 100 95 93 100 99 8 6 14 42 79 100 100 100 100 100 100 100
100 100 100 100 100 100 100 100 70 5 5 92 100 100 100 97 97 100 100 96 100 100 100 100 97 100 100 100 100 100 100 100 100 66 68 98 100 100 100 100 100 100 100 100 100
100 100 100 100 100 100 100 100 28 5 5 42 100 100 100 83 100 100 99 46 100 100 100 100 100 100 100 100 100 100 100 100 100 100 100 100 100 100 100 100 100 100 100 100 100
100 100 100 100 100 100 100 100 99 100 70 83 28 99 100 100 72 99 98 100 100 100 100 100 100 100 100 100 100 100 100 100 100 100 100 100 100 100 100 100 100 100 100 100 100
100 100 100 100 100 100 100 100 100 100 100 92 82 48 99 99 90 17 95 100 100 100 100 100 100 100 100 100 100 100 100 100 100 100 100 100 98 100 98 100 100 100 100 100 100
100 100 100 100 100 100 100 100 100 100 100 100 67 100 100 100 99 99 100 100 100 100 100 100 100 100 100 100 100 84 100 100 100 100 100 100 100 100 100 100 100 100 100 100 100
100 100 100 100 100 100 100 100 100 100 100 100 100 100 87 100 96 84 100 100 100 100 100 100 100 100 100 100 93 92 42 88 100 100 88 90 100 100 100 100 100 100 100 100 100
100 100 100 100 100 100 100 100 100 100 100 100 100 100 100 100 94 100 100 100 100 100 100 100 100 100 100 100 60 60 17 100 100 100 96 100 100 100 100 100 100 78 6 54 100
100 100 100 100 100 100 100 100 100 100 100 100 100 100 100 100 100 100 100 100 100 100 100 100 100 100 88 100 100 100 80 77 100 100 99 84 99 100 100 100 100 51 100 100 100

GFSSW_prec_cloud_045.txt.gz
Cloud_Cover
100 61 76 19 8 6 48 7 5 5 74 84 16 1 3 5 9 3 2 0 3 2 1 0 0 1 5 5 5 5 0 0 0 0 0 0 0 0 0 0 0 0 0 0 0
100 91 84 93 5 33 5 35 97 5 4 5 22 6 56 91 92 4 86 5 0 1 2 5 2 0 2 5 2 0 0 0 0 0 0 0 0 0 0 0 0 0 0 0 0
100 100 100 99 63 34 60 5 86 84 19 52 8 5 90 100 92 5 99 36 0 0 5 3 5 5 5 2 0 0 0 0 0 0 0 0 0 0 0 0 0 0 0 0 0
100 100 100 100 80 100 100 43 38 5 5 28 95 5 1 6 8 7 2 96 89 0 0 4 4 4 5 0 0 0 0 0 0 0 0 0 0 0 0 0 0 0 0 0 0
100 100 100 100 100 91 100 97 100 74 21 5 26 56 100 62 81 31 7 97 93 5 2 0 1 5 5 5 1 0 0 0 0 0 0 0 0 0 0 4 0 0 0 0 0
100 100 100 100 100 100 100 100 84 100 89 51 6 16 5 24 100 100 57 5 5 5 0 0 3 5 5 5 3 0 0 0 0 0 0 0 0 2 0 0 0 0 0 0 0
100 100 100 100 100 100 100 100 100 88 78 66 58 59 98 6 8 71 5 5 5 5 5 4 0 5 5 5 2 0 0 0 3 0 0 0 0 5 3 0 0 0 0 0 0
100 100 100 100 100 100 100 100 100 100 100 100 100 69 40 41 100 100 83 41 5 5 5 5 5 5 5 5 5 1 0 0 5 0 3 0 1 5 0 0 0 0 0 0 0
100 100 100 100 100 100 100 100 100 100 100 100 100 100 100 97 55 5 44 51 93 32 78 74 17 5 5 5 5 4 1 37 5 3 0 0 0 0 5 3 0 0 0 0 0
100 100 100 100 100 100 100 100 100 100 100 100 100 100 100 100 100 71 67 82 30 5 64 93 8 5 47 4 0 2 15 8 5 4 0 0 0 0 5 5 3 0 0 0 0
100 100 100 100 100 100 100 100 100 100 100 100 100 100 100 100 100 100 100 21 33 12 81 54 53 93 17 16 4 5 5 6 12 0 0 0 0 5 5 0 5 5 0 0 0
100 100 100 100 100 100 100 100 100 100 100 100 100 100 93 92 100 100 100 92 100 100 69 99 10 90 5 7 10 5 5 92 6 2 0 0 3 0 3 0 5 1 5 5 5
100 100 100 100 100 100 100 100 100 100 100 100 100 81 100 100 100 100 100 100 100 100 100 100 100 91 82 20 94 21 5 98 5 2 0 2 2 0 0 4 0 0 0 0 0
100 100 100 100 100 100 100 100 100 100 82 100 100 96 57 71 56 96 100 100 100 100 78 17 77 100 96 61 64 6 3 5 5 0 0 0 2 5 4 2 4 4 0 4 5
100 100 100 100 100 100 100 100 100 100 44 67 92 100 100 100 97 97 100 100 100 100 100 30 62 49 94 100 95 13 56 22 5 3 0 1 3 56 7 100 90 5 5 9 20
100 100 100 100 99 100 100 100 100 100 17 0 1 92 100 100 100 100 100 100 100 100 100 94 22 84 68 92 31 5 42 96 18 3 3 28 5 3 13 100 94 90 99 36 63
100 100 100 100 100 100 100 100 100 100 64 5 7 83 100 100 100 100 100 100 100 100 100 100 93 49 100 83 16 80 92 39 21 38 9 5 44 3 60 100 100 100 67 78 90
100 100 100 100 100 100 100 100 100 53 84 5 5 94 100 100 100 100 100 100 100 100 100 95 78 28 98 100 53 4 49 99 87 64 91 87 6 29 100 96 100 100 100 100 100
100 100 100 100 100 100 100 100 78 100 100 91 76 6 94 100 100 100 100 100 100 100 100 97 68 37 5 17 91 5 6 100 100 100 44 47 94 63 99 100 100 100 100 100 100
100 100 100 100 100 100 100 100 46 94 96 94 90 100 57 100 100 100 100 100 100 100 100 84 40 5 5 5 63 42 98 100 100 98 80 5 5 56 93 94 100 100 100 100 100
100 100 100 100 100 100 100 98 81 100 100 68 70 100 100 100 100 100 92 96 100 100 100 100 100 9 5 14 91 67 65 100 100 100 93 89 85 100 100 100 100 100 100 100 100
100 100 100 100 100 100 100 96 64 100 100 56 27 83 100 100 100 100 100 100 100 100 100 100 100 100 82 13 94 67 35 96 100 100 100 88 81 100 100 100 100 100 100 100 100
100 100 100 100 100 100 100 100 100 100 99 73 47 86 99 100 98 100 100 100 100 100 100 100 100 100 96 69 66 100 100 100 100 100 21 20 39 100 100 99 85 100 100 100 100
100 100 100 100 100 100 100 100 100 100 100 100 36 100 100 100 96 80 100 100 100 100 100 100 100 98 100 100 100 98 100 100 100 94 100 44 99 99 100 89 100 100 98 99 100
100 100 100 100 100 100 100 100 100 100 100 100 100 79 99 100 100 70 100 100 100 100 100 100 100 100 100 100 100 100 100 100 100 95 86 41 90 100 100 100 100 93 72 98 100
100 100 100 100 100 100 100 100 100 100 100 100 100 100 100 100 85 100 100 100 100 100 100 100 100 100 100 100 100 100 27 58 100 100 100 100 26 100 100 100 100 100 100 75 81
100 100 100 100 100 100 100 100 100 100 100 100 100 100 100 100 100 100 100 100 100 100 100 100 100 100 100 100 100 100 43 97 89 100 100 69 21 100 100 93 88 100 100 100 100

GFSSW_prec_cloud_048.txt.gz
Cloud_Cover
96 89 71 100 12 5 5 5 5 88 10 80 6 7 32 6 0 3 14 2 0 0 0 4 2 3 2 5 3 3 0 0 0 0 0 0 0 0 0 0 0 0 0 0 0
88 100 100 74 97 58 26 28 31 5 4 25 5 93 100 12 5 5 46 2 5 5 2 0 2 3 4 3 0 0 0 0 0 0 0 0 0 0 0 0 0 0 0 0 0
99 100 100 98 84 97 93 6 86 73 68 31 7 5 8 5 5 93 76 10 5 96 5 0 1 5 3 5 5 1 0 0 0 0 0 0 0 0 0 0 0 0 0 0 0
100 93 100 100 98 54 66 100 64 79 44 8 100 10 12 56 27 5 83 84 2 4 100 97 5 0 2 5 5 0 0 0 0 0 0 0 0 0 0 0 0 0 0 0 0
100 100 100 100 100 100 100 71 76 76 7 5 13 75 44 94 91 15 34 5 39 4 9 77 12 5 0 1 4 1 0 0 0 0 0 0 0 0 0 0 0 0 0 0 0
100 100 100 100 100 100 100 100 63 58 96 16 38 9 51 5 6 95 100 100 100 91 21 3 2 3 0 2 4 4 0 0 0 0 0 0 0 0 0 0 1 0 0 0 0
100 100 100 100 100 100 100 100 100 94 74 82 62 32 19 33 11 40 5 37 100 60 5 5 5 5 2 1 0 0 0 0 0 0 0 0 0 0 4 0 0 0 0 0 0
100 100 100 100 100 100 100 100 100 100 100 97 64 20 87 5 20 93 89 5 5 7 5 5 5 5 5 5 5 5 4 0 1 0 2 0 4 86 1 0 0 0 0 0 0
100 100 100 100 100 100 100 100 100 100 100 100 100 99 100 49 29 13 5 19 26 97 61 18 39 38 76 32 13 43 0 2 5 3 0 0 0 5 0 0 2 0 0 0 0
100 100 100 100 100 100 100 100 100 100 100 100 100 100 100 100 100 100 100 97 72 8 5 100 83 7 100 50 7 0 0 0 0 0 0 0 0 5 0 0 0 3 0 0 0
100 100 100 100 100 100 100 100 100 100 100 100 100 100 100 100 100 100 100 100 100 100 100 28 5 94 89 5 47 1 2 5 4 0 0 0 0 0 3 3 5 5 0 0 0
100 100 100 100 100 100 100 100 100 100 100 100 100 100 100 100 100 100 100 71 63 99 100 100 100 100 14 7 5 2 4 0 2 0 0 0 0 0 3 7 4 5 0 0 0
100 100 100 100 100 100 100 100 100 100 99 100 100 100 100 100 100 100 100 98 95 90 100 89 100 100 100 100 12 43 4 5 4 0 0 0 0 0 2 4 34 2 1 0 0
100 100 100 100 100 100 100 100 100 100 44 100 100 50 65 100 65 100 100 100 100 100 100 66 100 63 100 39 78 34 79 4 5 0 0 0 1 3 5 0 83 17 1 4 0
100 100 100 100 100 100 100 100 100 100 97 23 100 100 100 100 100 100 100 100 100 100 100 78 70 96 70 100 26 5 5 5 5 0 0 1 0 95 31 5 5 4 5 5 5
100 100 100 100 100 99 100 100 100 100 71 50 97 100 100 100 100 100 100 100 100 100 100 100 99 67 100 100 94 5 5 5 2 0 2 4 1 0 94 97 64 4 0 0 2
100 100 100 100 100 100 100 100 100 100 43 5 3 5 68 100 100 100 100 100 100 100 100 100 100 97 97 90 99 85 8 5 4 5 4 2 0 0 4 67 100 100 82 34 8
100 100 100 100 100 100 100 100 100 54 6 100 72 13 27 100 99 100 100 100 100 100 100 100 100 100 95 100 100 74 31 76 5 5 0 1 1 2 7 79 16 70 100 100 98
100 100 100 100 100 100 100 100 100 100 76 27 30 59 5 50 100 100 100 100 100 100 100 100 75 5 89 100 98 5 4 94 18 5 5 0 0 4 88 100 100 100 100 100 90
100 100 100 100 100 100 100 100 77 100 100 100 26 46 5 40 92 100 100 100 100 100 100 100 51 5 12 100 100 18 30 97 65 16 19 1 5 5 60 100 100 100 68 79 87
100 100 100 100 100 100 100 100 20 100 100 100 100 97 76 5 95 100 100 100 100 100 100 100 93 22 41 6 99 84 5 48 93 56 5 4 1 0 36 94 100 100 100 100 100
100 100 100 100 100 100 100 80 96 88 100 100 100 100 100 92 65 6 100 100 100 100 100 100 100 80 86 100 99 99 67 100 100 100 14 5 21 5 87 100 100 100 100 100 100
100 100 100 100 100 100 100 100 100 100 100 100 100 100 100 100 100 5 94 100 100 100 100 100 100 100 99 69 93 100 100 100 100 81 6 87 34 31 99 13 19 96 100 88 20
98 100 100 100 100 100 100 100 100 100 100 100 100 100 100 100 100 51 72 100 100 100 100 100 100 100 100 100 100 100 100 100 100 75 70 12 93 74 93 8 36 68 86 100 100
100 100 100 100 100 100 100 100 100 100 100 100 100 100 100 100 99 31 100 100 100 100 100 100 100 100 100 100 100 100 100 100 100 99 77 87 56 100 100 100 100 100 100 100 100
100 86 100 100 100 100 100 100 100 100 100 100 100 100 100 100 73 100 100 100 100 95 100 100 100 100 99 100 100 100 90 12 45 61 69 63 48 100 100 100 100 100 100 100 99
100 55 94 100 100 100 100 100 100 100 100 100 100 100 100 100 99 100 100 100 100 100 100 100 100 100 94 100 100 100 52 47 54 28 56 8 52 100 100 100 100 100 100 100 97